Regional Weather Roundup
Issued by NWS

Home | Current Version | Previous Version | Text Only | Print | Product List | Glossary Off
Versions: 1 2 3 4 5 6 7 8 9 10 11 12 13 14 15 16 17 18 19 20 21 22 23 24 25 26 27 28 29 30 31 32 33 34 35 36 37 38 39 40 41 42 43 44 45 46 47 48 49 50

000
ASUS43 KFSD 231910
RWRSD

WEATHER ROUNDUP FOR SOUTH DAKOTA
NATIONAL WEATHER SERVICE SIOUX FALLS SD
100 PM CST MON JAN 23 2017

NOTE: "FAIR" INDICATES FEW OR NO CLOUDS BELOW 12,000 FEET WITH NO
SIGNIFICANT WEATHER AND/OR OBSTRUCTIONS TO VISIBILITY.


SDZ001>005-009-010-012>017-232000-
NORTHWEST AND NORTH CENTRAL SOUTH DAKOTA

CITY           SKY/WX    TMP DP  RH WIND       PRES   REMARKS
BUFFALO          N/A     26  20  77 NE6       29.62F WCI  19
FAITH            N/A     27  24  89 SE16      29.68F WCI  15
MOBRIDGE       CLOUDY    29  24  82 SE7       29.74S WCI  22
$$

SDZ012>016-024>037-041>051-057-063-072>074-232000-
SOUTHWEST AND SOUTH CENTRAL SOUTH DAKOTA

CITY           SKY/WX    TMP DP  RH WIND       PRES   REMARKS
RAPID CTY ARPT CLOUDY    26  22  84 N7        29.62F WCI  18
PIERRE         CLOUDY    29  25  85 SE12      29.73F WCI  19
CUSTER         CLOUDY    32  23  69 W7        29.54F WCI  26
ELLSWORTH AFB  CLOUDY    24  23  97 N7        29.62F WCI  15
PHILIP         CLOUDY    27  26  96 E14       29.66F WCI  16
PINE RIDGE     MOSUNNY   38  30  73 SW8       29.59F
SPEARFISH      FOG       19  19 100 VRB3      29.62F VSB<1/4
WINNER         CLOUDY    33  29  85 SE10      29.71  WCI  25
$$

SDZ004>011-016>023-039-040-232000-
NORTHEAST SOUTH DAKOTA

CITY           SKY/WX    TMP DP  RH WIND       PRES   REMARKS
ABERDEEN       CLOUDY    30  23  75 S6        29.81S WCI  24
WATERTOWN      CLOUDY    28  26  92 SW5       29.79F WCI  23
BROOKINGS      CLOUDY    29  26  89 CALM      29.80
SISSETON         N/A     32  27  81 NW6       29.80F WCI  26
$$

SDZ017-020-022-023-036>040-048>070-232000-
SOUTHEAST SOUTH DAKOTA

CITY           SKY/WX    TMP DP  RH WIND       PRES   REMARKS
SIOUX FALLS    CLOUDY    31  27  85 CALM      29.81F
HURON          CLOUDY    31  26  82 VRB3      29.79F
CHAMBERLAIN    PTSUNNY   33  30  87 SE8       29.75F WCI  26
MITCHELL       PTSUNNY   33  27  78 SE3       29.80F
YANKTON        CLOUDY    30  25  80 SE5       29.81F WCI  25
$$

ABBREVIATIONS USED IN REMARKS
   TC - TEMPERATURE IN CELSIUS
  WCI - WIND CHILL INDEX
   HX - HEAT INDEX
  VSB - VISIBILITY





USA.gov is the U.S. government's official web portal to all federal, state and local government web resources and services.